#timestamp,LO_Frequency,Hit 
1498510815.2,286047047.6,N
1498510835.0,286047044.9,N
1498510836.0,286047044.9,N
1498510855.8,286047044.8,N
1498510875.6,286047045.1,N
1498510895.4,286047044.6,N
1498510915.3,286047044.7,N
1498510935.1,286047045.7,N
1498510955.8,286047044.0,N
1498510975.7,286047044.2,N
1498510995.5,286047045.7,N
1498511015.3,286047044.0,N
1498511035.2,286047045.5,N
1498511055.9,286047046.0,N
1498511075.7,286047044.1,N
1498511095.6,286047044.1,N
1498511115.4,286047041.3,N
1498511135.2,286047041.9,N
1498511155.0,286047041.6,N
1498511156.0,286047041.6,N
1498511175.8,286047044.3,N
1498511195.6,286047041.8,N
1498511215.4,286047046.0,N
1498511235.3,286047043.4,N
1498511255.1,286047045.8,N
1498511275.8,286047045.9,N
1498511295.7,286047047.2,N
1498511315.5,286047047.5,N
1498511335.3,286047047.0,N
1498511355.2,286047044.5,N
1498511375.9,286047045.8,N
1498511395.7,286047046.0,N
1498511415.6,286047046.0,N
1498511435.4,286047041.7,N
1498511455.2,286047044.2,N
1498511475.0,286047042.0,N
1498511475.9,286047042.0,N
1498511495.8,286047044.4,N
1498511515.6,286047045.7,N
1498511535.4,286047046.9,N
1498511555.3,286047047.2,N
1498511575.1,286047044.5,N
1498511595.8,286047045.7,N
1498511615.7,286047043.0,N
1498511635.5,286047045.1,N
1498511655.3,286047044.6,N
1498511675.2,286047047.5,N
1498511695.9,286047046.5,N
1498511715.7,286047047.5,N
1498511735.6,286047047.2,N
1498511755.4,286047045.1,N
1498511775.2,286047047.6,N
1498511795.0,286047046.1,N
1498511796.0,286047046.1,N
1498511815.8,286047049.2,N
1498511835.6,286047047.0,N
1498511855.4,286047046.1,N
1498511875.3,286047050.6,N
1498511895.1,286047045.8,N
1498511915.8,286047046.0,N
1498511935.7,286047046.7,N
1498511955.5,286047047.2,N
1498511975.3,286047046.3,N
1498511995.2,286047047.2,N
1498512015.9,286047048.9,N
1498512035.7,286047047.9,N
1498512055.6,286047047.7,N
1498512075.4,286047049.0,N
1498512095.2,286047047.7,N
1498512115.0,286047048.0,N
1498512115.9,286047048.0,N
1498512135.8,286047049.8,N
1498512155.6,286047050.3,N
1498512175.4,286047050.0,N
1498512195.3,286047049.5,N
1498512215.1,286047050.2,N
1498512235.8,286047049.6,N
1498512255.7,286047049.7,N
1498512275.5,286047050.1,N
1498512295.3,286047050.5,N
1498512315.2,286047051.9,N
1498512335.9,286047049.7,N
1498512355.7,286047048.0,N
1498512375.6,286047050.2,N
1498512395.4,286047050.2,N
1498512415.2,286047052.4,N
1498512435.0,286047050.2,N
1498512435.9,286047050.2,N
1498512455.8,286047049.5,N
1498512475.6,286047052.4,N
1498512495.4,286047051.3,N
1498512515.3,286047051.1,N
1498512535.1,286047053.9,N
1498512536.0,286047053.9,N
1498512555.8,286047053.6,N
1498512575.7,286047053.9,N
1498512595.5,286047053.5,N
1498512615.3,286047052.4,N
1498512635.2,286047052.3,N
1498512655.9,286047052.2,N
1498512675.8,286047049.3,N
1498512695.6,286047052.4,N
1498512715.4,286047048.9,N
1498512735.2,286047046.9,N
1498512755.1,286047046.1,N
1498512756.0,286047046.1,N
1498512775.8,286047050.2,N
1498512795.6,286047051.2,N
1498512815.5,286047052.3,N
1498512835.3,286047052.0,N
1498512855.1,286047051.0,N
1498512875.9,286047051.8,N
1498512895.7,286047051.8,N
1498512915.5,286047053.8,N
1498512935.4,286047055.5,N
1498512955.2,286047055.3,N
1498512975.0,286047057.1,N
1498512975.9,286047057.1,N
1498512995.8,286047052.9,N
1498513015.6,286047055.5,N
1498513035.4,286047055.1,N
1498513055.2,286047052.9,N
1498513075.1,286047053.5,N
1498513076.0,286047053.5,N
1498513095.8,286047050.9,N
1498513115.6,286047054.0,N
1498513135.5,286047051.8,N
1498513155.3,286047053.6,N
1498513175.1,286047053.8,N
1498513195.9,286047053.2,N
1498513215.7,286047054.0,N
1498513235.5,286047053.9,N
1498513255.4,286047054.0,N
1498513275.2,286047051.5,N
1498513295.0,286047051.3,N
1498513295.9,286047051.3,N
1498513315.8,286047051.0,N
1498513335.6,286047053.6,N
1498513355.4,286047053.1,N
1498513375.3,286047053.3,N
1498513395.1,286047052.6,N
1498513396.0,286047052.6,N
1498513415.8,286047055.3,N
1498513435.6,286047054.3,N
1498513455.5,286047057.0,N
1498513475.3,286047056.2,N
1498513495.1,286047059.7,N
1498513515.9,286047060.3,N
1498513535.7,286047057.7,N
1498513555.5,286047059.7,N
1498513575.4,286047057.3,N
1498513595.2,286047058.2,N
1498513615.0,286047057.8,N
1498513615.9,286047057.8,N
1498513635.8,286047058.2,N
1498513655.6,286047059.9,N
1498513675.4,286047059.3,N
1498513695.2,286047059.8,N
1498513715.1,286047057.6,N
1498513716.0,286047057.6,N
1498513735.8,286047058.1,N
1498513755.6,286047057.4,N
1498513775.5,286047060.2,N
1498513795.3,286047057.7,N
1498513815.1,286047060.1,N
1498513835.9,286047059.3,N
1498513855.7,286047059.8,N
1498513875.5,286047059.3,N
1498513895.4,286047058.9,N
1498513915.2,286047059.0,N
1498513935.0,286047059.8,N
1498513935.9,286047059.8,N
1498513955.8,286047059.6,N
1498513975.6,286047060.0,N
1498513995.4,286047059.8,N
1498514015.2,286047059.3,N
1498514035.1,286047059.6,N
1498514036.0,286047059.6,N
1498514055.8,286047061.7,N
1498514075.6,286047061.6,N
1498514095.5,286047059.5,N
1498514115.3,286047060.1,N
1498514135.1,286047060.7,N
1498514155.9,286047060.8,N
1498514175.7,286047059.3,N
1498514195.5,286047059.2,N
1498514215.4,286047059.2,N
1498514235.2,286047060.1,N
1498514255.0,286047060.5,N
1498514255.9,286047060.5,N
1498514275.8,286047062.9,N
1498514295.6,286047060.9,N
1498514315.4,286047060.6,N
1498514335.2,286047059.9,N
1498514355.1,286047061.8,N
1498514356.0,286047061.8,N
1498514375.8,286047063.6,N
1498514395.6,286047062.4,N
